STARLINK-35242

Last updated on Mon Oct 06 2025 00:02:05 GMT+0000 (Coordinated Universal Time)

1 65493U 25198B 25278.50001156 -.01600802 00000+0 -32715-1 0 9991 2 65493 53.1591 280.5156 0001108 81.7085 64.4835 15.48686011 5374

Satellite not in orbit

STARLINK-35242